Regional Weather Roundup
Issued by NWS

Home | Current Version | Previous Version | Graphics & Text | Print | Product List | Glossary On
Versions: 1 2 3 4 5 6 7 8 9 10 11 12 13 14 15 16 17 18 19 20 21 22 23 24 25 26 27
000
ASUS45 KBOU 251807
RWRCO

WEATHER ROUNDUP FOR COLORADO
NATIONAL WEATHER SERVICE DENVER/BOULDER CO
1200 PM MDT MON JUL 25 2016

NOTE: "FAIR" INDICATES FEW OR NO CLOUDS BELOW 12000 FEET WITH NO
SIGNIFICANT WEATHER AND/OR OBSTRUCTIONS TO VISIBILITY.

COZ001>005-013-030-031-251900-
...NORTHWEST COLORADO...

CITY           SKY/WX    TMP DP  RH WIND       PRES   REMARKS
CRAIG          FAIR      87  32  14 NW9       30.27F
HAYDEN         FAIR      81  37  21 N5        30.30S
MEEKER         FAIR      85  43  22 VRB3      30.28F
MOUNT WERNER   NOT AVBL
STEAMBOAT SPGS FAIR      80  44  27 S5        30.32S
WALDEN         FAIR      79  27  14 W13G21    30.42F
$$

COZ006>008-011-251900-
...WEST CENTRAL VALLEYS...

CITY           SKY/WX    TMP DP  RH WIND       PRES   REMARKS
GRAND JUNCTION FAIR      90  42  18 SE9       30.17F
MONTROSE       FAIR      86  44  23 VRB5      30.26S
EAGLE          SUNNY     81  39  22 CALM      30.32F
RIFLE          FAIR      86  43  22 VRB5      30.22F
DELTA          FAIR      89  41  18 CALM      30.21F
NUCLA          FAIR     N/A N/A N/A N6        30.31F
$$

COZ017>023-064>068-251900-
...SOUTHWEST COLORADO...

CITY           SKY/WX    TMP DP  RH WIND       PRES   REMARKS
DURANGO        FAIR      82  47  29 NE5       30.34F
CORTEZ         FAIR      85  48  27 VRB5      30.28S
PAGOSA SPRINGS FAIR      79  38  22 S6        30.42F
TELLURIDE      FAIR      76  39  26 W9        30.54F
WOLF CREEK PAS FAIR      59  39  47 W6        30.79S
$$

COZ009-010-012-014-032>034-037-058>063-251900-
...CENTRAL COLORADO...

CITY           SKY/WX    TMP DP  RH WIND       PRES   REMARKS
ASPEN          FAIR      80  41  24 N7        30.39F
BUENA VISTA    FAIR      80  35  20 E8        30.41F
COPPER MTN     PTSUNNY   64  19  17 NW13G22   30.77R
BERTHOUD PASS  FAIR      55  43  62 NE7G28    30.79R
COTTONWOOD PAS FAIR      79  30  17 E12G17    30.57F
GUNNISON       FAIR      75  43  31 W5        30.44F
KREMMLING      FAIR      73  43  33 E3        30.39F
LEADVILLE      FAIR      69  24  18 NW8       30.56F
MONARCH PASS   FAIR      63  30  29 MISG      30.86F
SALIDA         FAIR      83  45  25 CALM      30.45F
SUNLIGHT       FAIR      70  41  35 CALM      30.69S
WILKERSON PASS FAIR      70  27  19 SW5       30.73S
$$

COZ069>075-251900-
...SAN LUIS VALLEY/SANGRE DE CRISTO MOUNTAINS...

CITY           SKY/WX    TMP DP  RH WIND       PRES   REMARKS
ALAMOSA        FAIR      78  45  30 NW7       30.40F
LA VETA PASS   FAIR      72  41  33 CALM      30.63S
SAGUACHE       FAIR      77  46  33 S7        30.44F
$$

COZ035-036-038>040-251900-
...NORTHERN COLORADO FRONT RANGE...

CITY           SKY/WX    TMP DP  RH WIND       PRES   REMARKS
DENVER INTL AP FAIR      87  48  25 CALM      30.19F
DMNS CITY PARK   N/A     85  53  33 NW1       30.18F
AURORA         MOSUNNY   88  50  26 VRB3      30.20F
FRONT RANGE AP MOSUNNY   90  52  27 MISG      30.21S
ERIE MUNI ARPT FAIR      80  54  41 CALM      30.19S
BOULDER MUN AP FAIR      81  55  41 E6        30.19F
CENTENNIAL     FAIR      87  47  24 VRB3      30.21F
BROOMFIELD     MOSUNNY   81  52  36 NE5       30.22F
LONGMONT       FAIR      81  57  43 CALM      30.20S
$$

COZ041-046-047-076>085-087-088-251900-
...PIKES PEAK/PALMER DIVIDE AND SOUTHERN FOOTHILLS...

CITY           SKY/WX    TMP DP  RH WIND       PRES   REMARKS
COLO. SPRINGS  FAIR      78  53  41 S6        30.30S
A. F. ACADEMY  MOSUNNY   80  53  38 SE7       30.30F
SCHRIEVER AFB  NOT AVBL
ELLICOTT       LGT RAIN N/A N/A N/A SW8       30.28S
FALCON         NOT AVBL
FORT CARSON    FAIR      79  58  47 VRB5      30.25F
LIMON          FAIR      83  56  39 S14G26    30.23S
MONUMENT HILL  FAIR      81  45  28 S10       30.34F
TRINIDAD       NOT AVBL
$$

COZ042>045-048>051-090-091-251900-
...NORTHEAST COLORADO...

CITY           SKY/WX    TMP DP  RH WIND       PRES   REMARKS
GREELEY ARPT   FAIR      79  59  50 S8        30.19S
AKRON          FAIR      79  60  52 SE18G26   30.19F
BURLINGTON     FAIR      77  63  61 SE16G24   30.21F
WRAY           FAIR      84  59  42 SE13      30.18S
STERLING       FAIR      82  61  47 SE14G20   30.15F
HOLYOKE        FAIR      81  63  54 W15G21    30.17F
FORT MORGAN    FAIR      82  60  45 E14G20    30.17F
$$

COZ086-089-092>099-251900-
...SOUTHEAST COLORADO...

CITY           SKY/WX    TMP DP  RH WIND       PRES   REMARKS
PUEBLO         FAIR      86  58  38 S7        30.18F
LA JUNTA       FAIR      81  63  54 S7        30.17F
LAMAR          FAIR      85  62  46 NE13G18   30.15F
SPRINGFIELD      N/A     86  58  38 E12G17    30.20S
$$




USA.gov is the U.S. government's official web portal to all federal, state and local government web resources and services.